CET,Max TemperatureF,Mean TemperatureF,Min TemperatureF,Max Dew PointF,MeanDew PointF,Min DewpointF,Max Humidity, Mean Humidity, Min Humidity, Max Sea Level PressureIn, Mean Sea Level PressureIn, Min Sea Level PressureIn, Max VisibilityMiles, Mean VisibilityMiles, Min VisibilityMiles, Max Wind SpeedMPH, Mean Wind SpeedMPH, Max Gust SpeedMPH,PrecipitationIn, CloudCover, Events, WindDirDegrees
2012-11-1,75,65,55,61,53,48,94,70,38,29.83,29.65,29.53,6,6,1,18,9,,0.00,3,Rain-Thunderstorm,258
2012-11-2,77,65,53,55,50,46,82,65,34,30.04,29.91,29.83,6,6,6,15,9,,0.00,1,,249
2012-11-3,73,60,48,52,49,45,93,67,36,30.09,30.06,30.04,,,,10,6,,0.00,,,232
2012-11-4,73,63,53,61,55,50,88,74,52,30.06,30.03,29.98,6,6,6,13,8,,0.00,3,,245
2012-11-5,80,71,62,64,60,57,88,70,51,29.98,29.94,29.86,6,6,6,20,9,,0.00,3,,244
2012-11-6,75,68,60,61,56,46,94,66,36,30.09,30.02,29.95,6,6,6,16,9,,0.00,2,,282
2012-11-7,68,62,53,61,54,43,94,74,52,30.24,30.13,30.06,6,6,4,14,6,,0.00,4,Rain,276
2012-11-8,69,56,44,48,45,37,93,69,31,30.27,30.22,30.18,6,6,6,12,5,,0.00,1,,237
2012-11-9,68,57,46,52,47,43,88,73,49,30.18,30.11,30.06,,,,12,7,,0.00,,,238
2012-11-10,68,57,46,55,52,45,93,79,60,30.15,30.10,30.06,6,6,5,9,6,,0.00,1,,228
2012-11-11,69,61,53,64,59,50,94,84,73,30.12,30.08,30.04,6,6,6,12,5,,0.00,5,,61
2012-11-12,73,66,60,64,61,59,94,81,61,30.18,30.15,30.12,6,6,4,14,7,,0.00,4,Rain,83
2012-11-13,69,62,55,63,58,54,94,80,64,30.21,30.16,30.12,6,5,2,13,6,,0.00,3,,67
2012-11-14,68,64,59,61,57,55,88,77,68,30.15,30.09,30.04,6,6,5,23,10,,0.00,5,Rain,74
2012-11-15,66,63,60,59,57,54,88,78,72,30.04,29.97,29.92,6,6,4,21,15,,0.00,6,Rain-Thunderstorm,53
2012-11-16,66,60,55,57,54,50,94,78,56,29.98,29.94,29.92,6,6,3,12,8,,0.00,4,Rain-Thunderstorm,24
2012-11-17,66,60,53,59,57,52,94,86,73,29.98,29.95,29.92,6,6,1,14,6,,0.00,3,Rain,160
2012-11-18,66,62,57,59,55,54,94,84,64,29.95,29.91,29.86,6,5,4,9,5,,0.00,6,Rain,251
2012-11-19,64,60,55,57,55,50,94,86,68,29.89,29.81,29.77,6,6,4,10,4,,0.00,5,Rain,270
2012-11-20,69,61,53,54,51,48,88,72,46,29.92,29.85,29.80,6,6,6,14,9,,0.00,2,,259
2012-11-21,68,58,48,54,51,46,94,80,56,30.06,29.98,29.92,6,6,6,10,6,,0.00,3,Rain,240
2012-11-22,68,58,48,55,52,46,94,82,56,30.18,30.14,30.06,6,6,5,8,5,,0.00,2,,223
2012-11-23,69,60,50,55,52,48,94,83,49,30.21,30.19,30.15,6,5,4,9,6,,0.00,2,,250
2012-11-24,66,57,48,55,51,46,94,82,64,30.24,30.20,30.18,6,5,2,8,5,,0.00,2,,213
2012-11-25,68,60,51,55,53,50,94,82,60,30.21,30.19,30.15,6,5,3,8,4,,0.00,2,,222
2012-11-26,68,57,46,54,49,43,94,77,40,30.18,30.11,30.06,6,5,2,9,6,,0.00,1,,237
2012-11-27,66,56,46,59,51,45,94,84,64,30.06,29.97,29.86,6,4,3,9,6,,0.00,4,,250
2012-11-28,75,67,57,61,53,43,88,65,44,29.83,29.63,29.53,6,5,4,23,9,37,0.00,2,Rain,196
2012-11-29,62,55,48,45,41,37,87,60,42,29.71,29.62,29.59,6,6,6,21,11,32,0.00,2,Rain,244
2012-11-30,59,49,39,50,42,37,93,80,58,29.80,29.69,29.65,6,6,5,16,8,18,0.00,3,Rain,248